Time,TemperatureF,DewpointF,PressureIn,WindDirection,WindDirectionDegrees,WindSpeedMPH,WindSpeedGustMPH,Humidity,HourlyPrecipIn,Conditions,Clouds,dailyrainin,SoftwareType,DateUTC
2013-09-02 00:00:00,68.7,61.2,29.95,NNW,345,0.0,0.0,77,0.00,,,0.00,Wunderground v.1.15,2013-09-02 05:00:00,
2013-09-02 00:05:00,68.7,61.2,29.95,NNW,346,0.0,0.0,77,0.00,,,0.00,Wunderground v.1.15,2013-09-02 05:05:00,
2013-09-02 00:15:00,68.9,61.8,29.95,NNW,345,0.0,0.0,78,0.00,,,0.00,Wunderground v.1.15,2013-09-02 05:15:00,
2013-09-02 00:20:00,69.0,61.9,29.95,NNW,345,0.0,0.0,78,0.00,,,0.00,Wunderground v.1.15,2013-09-02 05:20:00,
2013-09-02 00:31:00,69.0,61.5,29.96,NNW,345,0.0,0.0,77,0.00,,,0.00,Wunderground v.1.15,2013-09-02 05:31:00,
2013-09-02 00:36:00,69.0,61.9,29.96,NNW,345,0.0,0.0,78,0.00,,,0.00,Wunderground v.1.15,2013-09-02 05:36:00,
2013-09-02 00:40:00,68.9,61.8,29.96,NNW,345,0.0,0.0,78,0.00,,,0.00,Wunderground v.1.15,2013-09-02 05:40:00,
2013-09-02 00:55:00,68.7,61.9,29.96,NNW,346,0.0,0.0,79,0.00,,,0.00,Wunderground v.1.15,2013-09-02 05:55:00,
2013-09-02 01:00:00,68.6,61.8,29.97,NNW,346,0.0,0.0,79,0.00,,,0.00,Wunderground v.1.15,2013-09-02 06:00:00,
2013-09-02 01:06:00,68.4,61.6,29.97,NNW,346,0.0,0.0,79,0.00,,,0.00,Wunderground v.1.15,2013-09-02 06:06:00,
2013-09-02 01:15:00,67.9,61.5,29.97,NNW,344,0.0,0.0,80,0.00,,,0.00,Wunderground v.1.15,2013-09-02 06:15:00,
2013-09-02 01:20:00,67.7,61.7,29.97,NNW,345,0.0,0.0,81,0.00,,,0.00,Wunderground v.1.15,2013-09-02 06:20:00,
2013-09-02 01:30:00,67.3,61.6,29.97,NNW,346,0.0,0.0,82,0.00,,,0.00,Wunderground v.1.15,2013-09-02 06:30:00,
2013-09-02 01:35:00,67.0,61.3,29.97,NNW,346,0.0,0.0,82,0.00,,,0.00,Wunderground v.1.15,2013-09-02 06:35:00,
2013-09-02 01:40:00,66.8,61.5,29.97,NNW,346,0.0,0.0,83,0.00,,,0.00,Wunderground v.1.15,2013-09-02 06:40:00,
2013-09-02 01:50:00,66.5,61.2,29.97,NNW,346,0.0,0.0,83,0.00,,,0.00,Wunderground v.1.15,2013-09-02 06:50:00,
2013-09-02 02:00:00,66.1,61.1,29.98,NNW,346,0.0,0.0,84,0.00,,,0.00,Wunderground v.1.15,2013-09-02 07:00:00,
2013-09-02 02:10:00,65.8,60.8,29.98,NNW,345,0.0,0.0,84,0.00,,,0.00,Wunderground v.1.15,2013-09-02 07:10:00,
2013-09-02 02:20:00,65.7,61.1,29.97,NNW,345,0.0,0.0,85,0.00,,,0.00,Wunderground v.1.15,2013-09-02 07:20:00,
2013-09-02 02:30:00,65.4,60.8,29.97,NNW,345,0.0,0.0,85,0.00,,,0.00,Wunderground v.1.15,2013-09-02 07:30:00,
2013-09-02 02:35:00,65.4,60.8,29.97,NNW,344,0.0,0.0,85,0.00,,,0.00,Wunderground v.1.15,2013-09-02 07:35:00,
2013-09-02 02:45:00,65.1,60.5,29.97,NNW,346,0.0,0.0,85,0.00,,,0.00,Wunderground v.1.15,2013-09-02 07:45:00,
2013-09-02 02:50:00,65.1,60.5,29.97,NNW,344,0.0,0.0,85,0.00,,,0.00,Wunderground v.1.15,2013-09-02 07:50:00,
2013-09-02 03:00:00,64.8,60.5,29.98,NNW,345,0.0,0.0,86,0.00,,,0.00,Wunderground v.1.15,2013-09-02 08:00:00,
2013-09-02 03:05:00,64.7,60.4,29.98,NNW,345,0.0,0.0,86,0.00,,,0.00,Wunderground v.1.15,2013-09-02 08:05:00,
2013-09-02 03:15:00,64.5,60.2,29.98,NNW,345,0.0,0.0,86,0.00,,,0.00,Wunderground v.1.15,2013-09-02 08:15:00,
2013-09-02 03:20:00,64.4,60.1,29.98,NNW,344,0.0,0.0,86,0.00,,,0.00,Wunderground v.1.15,2013-09-02 08:20:00,
2013-09-02 03:30:00,64.1,59.8,29.98,NNW,344,0.0,0.0,86,0.00,,,0.00,Wunderground v.1.15,2013-09-02 08:30:00,
2013-09-02 03:40:00,63.9,60.0,29.98,NNW,345,0.0,0.0,87,0.00,,,0.00,Wunderground v.1.15,2013-09-02 08:40:00,
2013-09-02 03:45:00,63.8,59.9,29.98,NNW,345,0.0,0.0,87,0.00,,,0.00,Wunderground v.1.15,2013-09-02 08:45:00,
2013-09-02 03:55:00,63.6,60.0,29.98,NNW,346,0.0,0.0,88,0.00,,,0.00,Wunderground v.1.15,2013-09-02 08:55:00,
2013-09-02 04:00:00,63.5,59.9,29.98,NNW,344,0.0,0.0,88,0.00,,,0.00,Wunderground v.1.15,2013-09-02 09:00:00,
2013-09-02 04:06:00,63.4,59.8,29.98,NNW,344,0.0,0.0,88,0.00,,,0.00,Wunderground v.1.15,2013-09-02 09:06:00,
2013-09-02 04:15:00,63.3,59.7,29.98,NNW,345,0.0,0.0,88,0.00,,,0.00,Wunderground v.1.15,2013-09-02 09:15:00,
2013-09-02 04:21:00,63.3,60.0,29.98,NNW,345,0.0,0.0,89,0.00,,,0.00,Wunderground v.1.15,2013-09-02 09:21:00,
2013-09-02 04:30:00,63.1,59.8,29.98,NNW,345,0.0,0.0,89,0.00,,,0.00,Wunderground v.1.15,2013-09-02 09:30:00,
2013-09-02 04:40:00,62.9,59.6,29.99,NNW,345,0.0,0.0,89,0.00,,,0.00,Wunderground v.1.15,2013-09-02 09:40:00,
2013-09-02 04:45:00,62.8,59.5,29.99,NNW,345,0.0,0.0,89,0.00,,,0.00,Wunderground v.1.15,2013-09-02 09:45:00,
2013-09-02 04:55:00,62.7,59.4,29.99,NNW,345,0.0,0.0,89,0.00,,,0.00,Wunderground v.1.15,2013-09-02 09:55:00,
2013-09-02 05:00:00,62.6,59.6,29.99,NNW,344,0.0,0.0,90,0.00,,,0.00,Wunderground v.1.15,2013-09-02 10:00:00,
2013-09-02 05:10:00,62.5,59.5,29.99,NNW,344,0.0,0.0,90,0.00,,,0.00,Wunderground v.1.15,2013-09-02 10:10:00,
2013-09-02 05:20:00,62.4,59.4,29.99,NNW,344,0.0,0.0,90,0.00,,,0.00,Wunderground v.1.15,2013-09-02 10:20:00,
2013-09-02 05:30:00,62.1,59.1,29.99,NNW,344,0.0,0.0,90,0.00,,,0.00,Wunderground v.1.15,2013-09-02 10:30:00,
2013-09-02 05:35:00,62.0,59.0,30.00,NNW,344,0.0,0.0,90,0.00,,,0.00,Wunderground v.1.15,2013-09-02 10:35:00,
2013-09-02 05:45:00,61.7,58.7,30.00,NNW,344,0.0,0.0,90,0.00,,,0.00,Wunderground v.1.15,2013-09-02 10:45:00,
2013-09-02 05:50:00,61.6,58.6,30.00,NNW,344,0.0,0.0,90,0.00,,,0.00,Wunderground v.1.15,2013-09-02 10:50:00,
2013-09-02 06:00:00,61.4,58.4,30.01,NNW,345,0.0,0.0,90,0.00,,,0.00,Wunderground v.1.15,2013-09-02 11:00:00,
2013-09-02 06:05:00,61.3,58.3,30.01,NNW,346,0.0,0.0,90,0.00,,,0.00,Wunderground v.1.15,2013-09-02 11:05:00,
2013-09-02 06:15:00,61.1,58.5,30.01,NNW,344,0.0,0.0,91,0.00,,,0.00,Wunderground v.1.15,2013-09-02 11:15:00,
2013-09-02 06:20:00,61.0,58.4,30.01,NNW,345,0.0,0.0,91,0.00,,,0.00,Wunderground v.1.15,2013-09-02 11:20:00,
2013-09-02 06:30:00,60.9,58.3,30.01,NNW,344,0.0,0.0,91,0.00,,,0.00,Wunderground v.1.15,2013-09-02 11:30:00,
2013-09-02 06:40:00,60.7,58.4,30.01,NNW,344,0.0,0.0,92,0.00,,,0.00,Wunderground v.1.15,2013-09-02 11:40:00,
2013-09-02 06:45:00,60.6,58.3,30.02,NNW,344,0.0,0.0,92,0.00,,,0.00,Wunderground v.1.15,2013-09-02 11:45:00,
2013-09-02 06:55:00,60.6,58.3,30.02,NNW,344,0.0,0.0,92,0.00,,,0.00,Wunderground v.1.15,2013-09-02 11:55:00,
2013-09-02 07:00:00,60.6,58.3,30.02,NNW,345,0.0,0.0,92,0.00,,,0.00,Wunderground v.1.15,2013-09-02 12:00:00,
2013-09-02 07:06:00,60.5,58.2,30.02,NNW,345,0.0,0.0,92,0.00,,,0.00,Wunderground v.1.15,2013-09-02 12:06:00,
2013-09-02 07:15:00,60.4,58.1,30.02,NNW,345,0.0,0.0,92,0.00,,,0.00,Wunderground v.1.15,2013-09-02 12:15:00,
2013-09-02 07:20:00,60.5,58.5,30.02,NNW,346,0.0,0.0,93,0.00,,,0.00,Wunderground v.1.15,2013-09-02 12:20:00,
2013-09-02 07:30:00,60.5,58.2,30.02,North,359,0.0,0.0,92,0.00,,,0.00,Wunderground v.1.15,2013-09-02 12:30:00,
2013-09-02 07:35:00,60.4,58.1,30.03,North,359,0.0,0.0,92,0.00,,,0.00,Wunderground v.1.15,2013-09-02 12:35:00,
2013-09-02 07:45:00,60.3,58.0,30.03,North,359,0.0,0.0,92,0.00,,,0.00,Wunderground v.1.15,2013-09-02 12:45:00,
2013-09-02 07:50:00,60.3,58.0,30.03,North,359,0.0,0.0,92,0.00,,,0.00,Wunderground v.1.15,2013-09-02 12:50:00,
2013-09-02 08:00:00,60.5,58.2,30.04,North,354,0.0,0.0,92,0.00,,,0.00,Wunderground v.1.15,2013-09-02 13:00:00,
2013-09-02 08:05:00,60.5,58.2,30.04,North,350,0.0,0.0,92,0.00,,,0.00,Wunderground v.1.15,2013-09-02 13:05:00,
2013-09-02 08:15:00,60.8,58.2,30.04,NNW,333,0.0,0.0,91,0.00,,,0.00,Wunderground v.1.15,2013-09-02 13:15:00,
2013-09-02 08:20:00,60.9,58.3,30.04,NNW,334,0.0,0.0,91,0.00,,,0.00,Wunderground v.1.15,2013-09-02 13:20:00,
2013-09-02 08:30:00,61.2,58.2,30.04,NNW,342,0.0,0.0,90,0.00,,,0.00,Wunderground v.1.15,2013-09-02 13:30:00,
2013-09-02 08:35:00,61.3,58.3,30.04,NNW,342,0.0,0.0,90,0.00,,,0.00,Wunderground v.1.15,2013-09-02 13:35:00,
2013-09-02 08:45:00,61.7,58.4,30.04,WNW,298,0.0,0.0,89,0.00,,,0.00,Wunderground v.1.15,2013-09-02 13:45:00,
2013-09-02 08:50:00,61.9,58.6,30.04,North,1,0.0,0.0,89,0.00,,,0.00,Wunderground v.1.15,2013-09-02 13:50:00,
2013-09-02 09:00:00,62.2,58.3,30.05,NW,326,0.0,1.0,87,0.00,,,0.00,Wunderground v.1.15,2013-09-02 14:00:00,
2013-09-02 09:10:00,62.4,58.2,30.05,NW,316,0.0,0.0,86,0.00,,,0.00,Wunderground v.1.15,2013-09-02 14:10:00,
2013-09-02 09:15:00,62.6,58.4,30.05,WNW,295,0.0,0.0,86,0.00,,,0.00,Wunderground v.1.15,2013-09-02 14:15:00,
2013-09-02 09:25:00,63.0,58.4,30.06,NNW,332,0.0,0.0,85,0.00,,,0.00,Wunderground v.1.15,2013-09-02 14:25:00,
2013-09-02 09:30:00,63.2,58.6,30.06,WNW,293,0.0,0.0,85,0.00,,,0.00,Wunderground v.1.15,2013-09-02 14:30:00,
2013-09-02 09:40:00,63.7,58.8,30.06,NW,309,0.0,1.0,84,0.00,,,0.00,Wunderground v.1.15,2013-09-02 14:40:00,
2013-09-02 09:50:00,64.0,58.7,30.06,NW,304,0.0,1.0,83,0.00,,,0.00,Wunderground v.1.15,2013-09-02 14:50:00,
2013-09-02 09:55:00,64.2,58.6,30.07,WNW,302,0.0,1.0,82,0.00,,,0.00,Wunderground v.1.15,2013-09-02 14:55:00,
2013-09-02 10:05:00,64.5,58.9,30.06,WNW,298,0.0,1.0,82,0.00,,,0.00,Wunderground v.1.15,2013-09-02 15:05:00,
2013-09-02 10:10:00,64.6,58.6,30.06,WNW,288,0.0,0.0,81,0.00,,,0.00,Wunderground v.1.15,2013-09-02 15:10:00,
2013-09-02 10:20:00,65.1,58.8,30.07,NNW,337,0.0,0.0,80,0.00,,,0.00,Wunderground v.1.15,2013-09-02 15:20:00,
2013-09-02 10:25:00,65.4,58.4,30.07,WNW,302,0.0,0.0,78,0.00,,,0.00,Wunderground v.1.15,2013-09-02 15:25:00,
2013-09-02 10:35:00,65.8,57.3,30.07,NW,307,0.0,1.0,74,0.00,,,0.00,Wunderground v.1.15,2013-09-02 15:35:00,
2013-09-02 10:40:00,66.0,57.1,30.06,NNE,23,1.0,1.0,73,0.00,,,0.00,Wunderground v.1.15,2013-09-02 15:40:00,
2013-09-02 10:50:00,66.6,58.1,30.06,WNW,302,1.0,2.0,74,0.00,,,0.00,Wunderground v.1.15,2013-09-02 15:50:00,
2013-09-02 10:55:00,66.9,58.0,30.06,North,354,1.0,2.0,73,0.00,,,0.00,Wunderground v.1.15,2013-09-02 15:55:00,
2013-09-02 11:01:00,67.1,58.2,30.06,WNW,295,1.0,1.0,73,0.00,,,0.00,Wunderground v.1.15,2013-09-02 16:01:00,
2013-09-02 11:10:00,67.8,58.8,30.06,WNW,297,1.0,1.0,73,0.00,,,0.00,Wunderground v.1.15,2013-09-02 16:10:00,
2013-09-02 11:20:00,68.3,58.9,30.06,NNE,20,0.0,0.0,72,0.00,,,0.00,Wunderground v.1.15,2013-09-02 16:20:00,
2013-09-02 11:25:00,68.7,59.7,30.06,NW,316,0.0,2.0,73,0.00,,,0.00,Wunderground v.1.15,2013-09-02 16:25:00,
2013-09-02 11:30:00,68.9,59.5,30.06,North,356,1.0,1.0,72,0.00,,,0.00,Wunderground v.1.15,2013-09-02 16:30:00,
2013-09-02 11:40:00,69.4,60.0,30.06,NNE,25,0.0,0.0,72,0.00,,,0.00,Wunderground v.1.15,2013-09-02 16:40:00,
2013-09-02 11:45:00,69.8,59.6,30.06,NW,322,0.0,2.0,70,0.00,,,0.00,Wunderground v.1.15,2013-09-02 16:45:00,
2013-09-02 11:55:00,70.4,59.7,30.05,WNW,300,1.0,1.0,69,0.00,,,0.00,Wunderground v.1.15,2013-09-02 16:55:00,
2013-09-02 12:05:00,71.2,59.3,30.05,SSE,152,0.0,0.0,66,0.00,,,0.00,Wunderground v.1.15,2013-09-02 17:05:00,
2013-09-02 12:10:00,71.6,60.1,30.05,NW,315,0.0,0.0,67,0.00,,,0.00,Wunderground v.1.15,2013-09-02 17:10:00,
2013-09-02 12:20:00,72.1,58.8,30.05,West,262,0.0,1.0,63,0.00,,,0.00,Wunderground v.1.15,2013-09-02 17:20:00,
2013-09-02 12:25:00,72.7,58.0,30.05,WNW,293,1.0,1.0,60,0.00,,,0.00,Wunderground v.1.15,2013-09-02 17:25:00,
2013-09-02 12:31:00,72.8,56.2,30.04,NW,307,2.0,2.0,56,0.00,,,0.00,Wunderground v.1.15,2013-09-02 17:31:00,
2013-09-02 12:40:00,73.5,56.8,30.04,NW,304,1.0,3.0,56,0.00,,,0.00,Wunderground v.1.15,2013-09-02 17:40:00,
2013-09-02 12:50:00,73.9,57.7,30.04,NNW,335,1.0,2.0,57,0.00,,,0.00,Wunderground v.1.15,2013-09-02 17:50:00,
2013-09-02 12:55:00,74.1,56.9,30.04,NE,56,0.0,0.0,55,0.00,,,0.00,Wunderground v.1.15,2013-09-02 17:55:00,
2013-09-02 13:05:00,74.6,56.3,30.04,NW,315,0.0,0.0,53,0.00,,,0.00,Wunderground v.1.15,2013-09-02 18:05:00,
2013-09-02 13:20:00,75.8,56.4,30.03,North,352,0.0,0.0,51,0.00,,,0.00,Wunderground v.1.15,2013-09-02 18:20:00,
2013-09-02 13:25:00,75.7,56.3,30.03,NNW,344,0.0,0.0,51,0.00,,,0.00,Wunderground v.1.15,2013-09-02 18:25:00,
2013-09-02 13:35:00,76.1,52.6,30.03,NW,312,1.0,3.0,44,0.00,,,0.00,Wunderground v.1.15,2013-09-02 18:35:00,
2013-09-02 13:40:00,76.3,50.9,30.03,NW,326,1.0,3.0,41,0.00,,,0.00,Wunderground v.1.15,2013-09-02 18:40:00,
2013-09-02 13:45:00,76.8,51.3,30.03,NNW,328,1.0,1.0,41,0.00,,,0.00,Wunderground v.1.15,2013-09-02 18:45:00,
2013-09-02 13:55:00,77.3,53.1,30.02,North,360,0.0,0.0,43,0.00,,,0.00,Wunderground v.1.15,2013-09-02 18:55:00,
2013-09-02 14:05:00,77.9,54.2,30.02,NNW,339,0.0,0.0,44,0.00,,,0.00,Wunderground v.1.15,2013-09-02 19:05:00,
2013-09-02 14:10:00,78.4,54.0,30.02,NNE,18,1.0,1.0,43,0.00,,,0.00,Wunderground v.1.15,2013-09-02 19:10:00,
2013-09-02 14:15:00,78.4,53.4,30.02,WNW,288,1.0,1.0,42,0.00,,,0.00,Wunderground v.1.15,2013-09-02 19:15:00,
2013-09-02 14:20:00,78.5,55.4,30.02,NNE,20,1.0,1.0,45,0.00,,,0.00,Wunderground v.1.15,2013-09-02 19:20:00,
2013-09-02 14:30:00,78.6,54.2,30.02,NNE,33,1.0,2.0,43,0.00,,,0.00,Wunderground v.1.15,2013-09-02 19:30:00,
2013-09-02 14:35:00,79.0,55.8,30.02,North,10,1.0,1.0,45,0.00,,,0.00,Wunderground v.1.15,2013-09-02 19:35:00,
2013-09-02 14:50:00,79.5,54.4,30.01,NNE,17,0.0,1.0,42,0.00,,,0.00,Wunderground v.1.15,2013-09-02 19:50:00,
2013-09-02 15:00:00,80.0,54.8,30.01,North,359,0.0,1.0,42,0.00,,,0.00,Wunderground v.1.15,2013-09-02 20:00:00,
2013-09-02 15:10:00,79.7,54.6,30.01,East,86,0.0,0.0,42,0.00,,,0.00,Wunderground v.1.15,2013-09-02 20:10:00,
2013-09-02 15:15:00,80.1,54.3,30.01,NNW,342,0.0,0.0,41,0.00,,,0.00,Wunderground v.1.15,2013-09-02 20:15:00,
2013-09-02 15:25:00,79.9,53.4,30.01,WNW,299,1.0,2.0,40,0.00,,,0.00,Wunderground v.1.15,2013-09-02 20:25:00,
2013-09-02 15:31:00,79.8,55.9,30.01,ENE,64,1.0,2.0,44,0.00,,,0.00,Wunderground v.1.15,2013-09-02 20:31:00,
2013-09-02 15:40:00,79.9,55.4,30.00,NNE,27,0.0,2.0,43,0.00,,,0.00,Wunderground v.1.15,2013-09-02 20:40:00,
2013-09-02 15:46:00,80.2,55.0,30.00,NW,316,0.0,1.0,42,0.00,,,0.00,Wunderground v.1.15,2013-09-02 20:46:00,
2013-09-02 15:55:00,80.4,55.9,30.00,SE,129,1.0,1.0,43,0.00,,,0.00,Wunderground v.1.15,2013-09-02 20:55:00,
2013-09-02 16:05:00,80.9,55.0,29.99,NNW,343,0.0,0.0,41,0.00,,,0.00,Wunderground v.1.15,2013-09-02 21:05:00,
2013-09-02 16:10:00,80.8,55.6,29.99,WNW,297,0.0,0.0,42,0.00,,,0.00,Wunderground v.1.15,2013-09-02 21:10:00,
2013-09-02 16:16:00,80.6,53.4,29.99,North,356,0.0,1.0,39,0.00,,,0.00,Wunderground v.1.15,2013-09-02 21:16:00,
2013-09-02 16:25:00,80.7,55.5,29.99,NE,49,0.0,0.0,42,0.00,,,0.00,Wunderground v.1.15,2013-09-02 21:25:00,
2013-09-02 16:35:00,80.3,55.1,29.99,NNE,20,0.0,0.0,42,0.00,,,0.00,Wunderground v.1.15,2013-09-02 21:35:00,
2013-09-02 16:40:00,79.7,53.9,29.99,NW,323,0.0,0.0,41,0.00,,,0.00,Wunderground v.1.15,2013-09-02 21:40:00,
2013-09-02 16:45:00,79.5,55.0,29.99,North,6,0.0,0.0,43,0.00,,,0.00,Wunderground v.1.15,2013-09-02 21:45:00,
2013-09-02 16:55:00,79.2,56.0,29.98,NNE,25,0.0,0.0,45,0.00,,,0.00,Wunderground v.1.15,2013-09-02 21:55:00,
2013-09-02 17:00:00,79.2,55.4,29.98,NNE,26,0.0,0.0,44,0.00,,,0.00,Wunderground v.1.15,2013-09-02 22:00:00,
2013-09-02 17:10:00,78.8,53.8,29.98,NW,320,0.0,0.0,42,0.00,,,0.00,Wunderground v.1.15,2013-09-02 22:10:00,
2013-09-02 17:16:00,78.6,54.2,29.98,North,360,0.0,0.0,43,0.00,,,0.00,Wunderground v.1.15,2013-09-02 22:16:00,
2013-09-02 17:25:00,78.1,54.4,29.98,NNW,345,0.0,0.0,44,0.00,,,0.00,Wunderground v.1.15,2013-09-02 22:25:00,
2013-09-02 17:30:00,77.9,55.5,29.98,NNE,16,0.0,0.0,46,0.00,,,0.00,Wunderground v.1.15,2013-09-02 22:30:00,
2013-09-02 17:40:00,77.9,54.8,29.99,NW,324,0.0,0.0,45,0.00,,,0.00,Wunderground v.1.15,2013-09-02 22:40:00,
2013-09-02 17:50:00,77.6,55.8,29.99,NNE,32,0.0,0.0,47,0.00,,,0.00,Wunderground v.1.15,2013-09-02 22:50:00,
2013-09-02 18:01:00,77.8,56.5,29.99,NNE,28,0.0,0.0,48,0.00,,,0.00,Wunderground v.1.15,2013-09-02 23:01:00,
2013-09-02 18:10:00,77.6,55.8,29.98,North,11,0.0,0.0,47,0.00,,,0.00,Wunderground v.1.15,2013-09-02 23:10:00,
2013-09-02 18:15:00,77.4,56.2,29.99,North,10,0.0,0.0,48,0.00,,,0.00,Wunderground v.1.15,2013-09-02 23:15:00,
2013-09-02 18:20:00,77.2,55.4,29.99,North,10,0.0,0.0,47,0.00,,,0.00,Wunderground v.1.15,2013-09-02 23:20:00,
2013-09-02 18:30:00,76.8,56.2,29.99,North,10,0.0,0.0,49,0.00,,,0.00,Wunderground v.1.15,2013-09-02 23:30:00,
2013-09-02 18:40:00,76.5,56.5,29.99,North,11,0.0,0.0,50,0.00,,,0.00,Wunderground v.1.15,2013-09-02 23:40:00,
2013-09-02 18:50:00,76.2,56.7,29.98,North,10,0.0,0.0,51,0.00,,,0.00,Wunderground v.1.15,2013-09-02 23:50:00,
2013-09-02 18:55:00,76.0,56.6,29.98,North,5,0.0,0.0,51,0.00,,,0.00,Wunderground v.1.15,2013-09-02 23:55:00,
2013-09-02 19:05:00,75.3,57.0,29.98,North,5,0.0,0.0,53,0.00,,,0.00,Wunderground v.1.15,2013-09-03 00:05:00,
2013-09-02 19:15:00,74.6,57.4,29.98,North,5,0.0,0.0,55,0.00,,,0.00,Wunderground v.1.15,2013-09-03 00:15:00,
2013-09-02 19:25:00,74.0,57.8,29.98,North,5,0.0,0.0,57,0.00,,,0.00,Wunderground v.1.15,2013-09-03 00:25:00,
2013-09-02 19:35:00,73.4,57.7,29.98,North,4,0.0,0.0,58,0.00,,,0.00,Wunderground v.1.15,2013-09-03 00:35:00,
2013-09-02 19:46:00,72.8,57.6,29.98,North,4,0.0,0.0,59,0.00,,,0.00,Wunderground v.1.15,2013-09-03 00:46:00,
2013-09-02 19:55:00,72.1,57.4,29.98,North,5,0.0,0.0,60,0.00,,,0.00,Wunderground v.1.15,2013-09-03 00:55:00,
2013-09-02 20:05:00,71.4,57.7,29.98,North,4,0.0,0.0,62,0.00,,,0.00,Wunderground v.1.15,2013-09-03 01:05:00,
2013-09-02 20:10:00,71.0,56.9,29.98,North,5,0.0,0.0,61,0.00,,,0.00,Wunderground v.1.15,2013-09-03 01:10:00,
2013-09-02 20:15:00,70.8,57.1,29.98,North,4,0.0,0.0,62,0.00,,,0.00,Wunderground v.1.15,2013-09-03 01:15:00,
2013-09-02 20:25:00,70.4,57.2,29.98,North,5,0.0,0.0,63,0.00,,,0.00,Wunderground v.1.15,2013-09-03 01:25:00,
2013-09-02 20:31:00,70.1,57.4,29.98,North,4,0.0,0.0,64,0.00,,,0.00,Wunderground v.1.15,2013-09-03 01:31:00,
2013-09-02 20:40:00,69.8,57.9,29.99,North,5,0.0,0.0,66,0.00,,,0.00,Wunderground v.1.15,2013-09-03 01:40:00,
2013-09-02 20:50:00,69.5,57.6,29.99,North,5,0.0,0.0,66,0.00,,,0.00,Wunderground v.1.15,2013-09-03 01:50:00,
2013-09-02 20:55:00,69.4,57.5,29.99,North,4,0.0,0.0,66,0.00,,,0.00,Wunderground v.1.15,2013-09-03 01:55:00,
2013-09-02 21:05:00,69.3,57.9,29.99,North,5,0.0,0.0,67,0.00,,,0.00,Wunderground v.1.15,2013-09-03 02:05:00,
2013-09-02 21:10:00,69.3,57.9,30.00,North,5,0.0,0.0,67,0.00,,,0.00,Wunderground v.1.15,2013-09-03 02:10:00,
2013-09-02 21:20:00,69.1,58.1,30.00,North,5,0.0,0.0,68,0.00,,,0.00,Wunderground v.1.15,2013-09-03 02:20:00,
2013-09-02 21:30:00,69.0,58.4,30.00,North,4,0.0,0.0,69,0.00,,,0.00,Wunderground v.1.15,2013-09-03 02:30:00,
2013-09-02 21:35:00,69.0,58.4,30.00,North,5,0.0,0.0,69,0.00,,,0.00,Wunderground v.1.15,2013-09-03 02:35:00,
2013-09-02 21:45:00,69.0,58.4,30.01,North,5,0.0,0.0,69,0.00,,,0.00,Wunderground v.1.15,2013-09-03 02:45:00,
2013-09-02 21:51:00,69.0,58.8,30.01,North,5,0.0,0.0,70,0.00,,,0.00,Wunderground v.1.15,2013-09-03 02:51:00,
2013-09-02 22:00:00,68.8,59.4,30.01,North,5,0.0,0.0,72,0.00,,,0.00,Wunderground v.1.15,2013-09-03 03:00:00,
2013-09-02 22:10:00,68.5,59.1,30.00,North,4,0.0,0.0,72,0.00,,,0.00,Wunderground v.1.15,2013-09-03 03:10:00,
2013-09-02 22:15:00,68.4,59.0,30.01,North,4,0.0,0.0,72,0.00,,,0.00,Wunderground v.1.15,2013-09-03 03:15:00,
2013-09-02 22:25:00,68.2,58.8,30.01,North,5,0.0,0.0,72,0.00,,,0.00,Wunderground v.1.15,2013-09-03 03:25:00,
2013-09-02 22:31:00,68.1,58.7,30.01,North,5,0.0,0.0,72,0.00,,,0.00,Wunderground v.1.15,2013-09-03 03:31:00,
2013-09-02 22:40:00,68.1,58.7,30.01,North,4,0.0,0.0,72,0.00,,,0.00,Wunderground v.1.15,2013-09-03 03:40:00,
2013-09-02 22:46:00,68.1,58.3,30.01,North,5,0.0,0.0,71,0.00,,,0.00,Wunderground v.1.15,2013-09-03 03:46:00,
2013-09-02 22:55:00,67.9,58.5,30.01,North,4,0.0,0.0,72,0.00,,,0.00,Wunderground v.1.15,2013-09-03 03:55:00,
2013-09-02 23:01:00,67.8,58.4,30.01,North,5,0.0,0.0,72,0.00,,,0.00,Wunderground v.1.15,2013-09-03 04:01:00,
2013-09-02 23:05:00,67.7,59.1,30.01,North,5,0.0,0.0,74,0.00,,,0.00,Wunderground v.1.15,2013-09-03 04:05:00,
2013-09-02 23:10:00,67.4,58.8,30.01,North,4,0.0,0.0,74,0.00,,,0.00,Wunderground v.1.15,2013-09-03 04:10:00,
2013-09-02 23:20:00,67.0,58.8,30.01,North,5,0.0,0.0,75,0.00,,,0.00,Wunderground v.1.15,2013-09-03 04:20:00,
2013-09-02 23:25:00,66.8,58.6,30.01,North,5,0.0,0.0,75,0.00,,,0.00,Wunderground v.1.15,2013-09-03 04:25:00,
2013-09-02 23:31:00,66.8,59.0,30.00,North,4,0.0,0.0,76,0.00,,,0.00,Wunderground v.1.15,2013-09-03 04:31:00,
2013-09-02 23:40:00,66.5,59.1,30.00,North,5,0.0,0.0,77,0.00,,,0.00,Wunderground v.1.15,2013-09-03 04:40:00,
2013-09-02 23:50:00,66.4,59.0,30.00,North,4,0.0,0.0,77,0.00,,,0.00,Wunderground v.1.15,2013-09-03 04:50:00,
2013-09-02 23:55:00,66.3,58.9,30.00,North,4,0.0,0.0,77,0.00,,,0.00,Wunderground v.1.15,2013-09-03 04:55:00,